Weather observations for the past three days for
Red Wing - Red Wing Regional Airport
Imperial (Metric)
Date Time (cdt) Wind (mph) Vis. (mi.) Weather Sky Cond. Temperature (ºF) Relative Humidity Wind Chill (°F) Heat Index (°F) Pressure Precipitation (in)
Air Dwpt 6 hour altimeter (in) sea level (mb) 1 hr 3 hr 6 hr
Max. Min.
14 09:55 SW 6 10.00 Partly Cloudy SCT027 SCT033 78.8 68 70% 81 29.89 0.0
14 09:35 W 6 10.00 Partly Cloudy SCT027 78.8 68 70% 81 29.9 0.0
14 09:15 Calm 10.00 Mostly Cloudy BKN027 75.2 66.2 74% 77 29.9 0.0
14 08:55 W 7 10.00 Mostly Cloudy BKN027 75.2 66.2 74% 77 29.9 0.0
14 08:35 SW 3 10.00 Fair CLR 75.2 66.2 74% 77 29.89 0.0
14 08:15 S 3 10.00 Fair CLR 73.4 64.4 74% 29.88 0.0
14 07:55 Calm 10.00 Fair CLR 73.4 64.4 74% 29.87 0.0
14 07:35 Calm 10.00 Fair CLR 73.4 64.4 74% 29.87 0.0
14 07:15 Calm 10.00 Fair CLR 71.6 64.4 78% 29.87 0.0
14 06:55 Calm 10.00 Fair CLR 71.6 64.4 78% 29.87 0.0
14 06:35 SE 7 10.00 Fair CLR 69.8 64.4 83% 29.87 0.0
14 06:15 SE 5 10.00 Fair CLR 69.8 64.4 83% 29.87 0.0
14 05:55 SE 6 10.00 Fair CLR 69.8 64.4 83% 29.88 0.0
14 05:35 SE 7 10.00 Fair CLR 69.8 64.4 83% 29.89 0.0
14 05:15 SE 7 10.00 Fair CLR 69.8 64.4 83% 29.89 0.0
14 04:55 SE 5 10.00 Fair CLR 69.8 64.4 83% 29.89 0.0
14 04:35 SE 13 10.00 Fair CLR 69.8 64.4 83% 29.89 0.0
14 04:15 SE 10 10.00 Fair CLR 69.8 66.2 88% 29.89 0.0
14 03:55 SE 12 10.00 Fair CLR 69.8 66.2 88% 29.88 0.0
14 03:35 S 3 G 17 10.00 Fair CLR 69.8 64.4 83% 29.87 0.0
14 03:15 SE 8 10.00 Thunderstorm in Vicinity CLR 69.8 66.2 88% 29.86 0.0
14 02:55 SE 8 10.00 Thunderstorm in Vicinity CLR 69.8 64.4 83% 29.87 0.0
14 02:35 E 9 G 17 10.00 Thunderstorm Light Rain SCT016 SCT024 SCT041 68 64.4 88% 29.87 0.0
14 02:15 E 15 2.50 Thunderstorm Heavy Rain SCT016 BKN024 OVC042 71.6 66.2 83% 29.96 0.0 0.01
14 01:55 NE 6 10.00 Thunderstorm OVC022 73.4 66.2 78% 29.9 0.0
14 01:35 NE 12 G 21 10.00 Thunderstorm in Vicinity SCT022 BKN029 OVC040 71.6 66.2 83% 29.91 0.0
14 01:15 E 3 10.00 Thunderstorm in Vicinity SCT029 BKN038 BKN046 71.6 66.2 83% 29.88 0.0
14 00:55 NE 5 10.00 Thunderstorm BKN036 BKN046 BKN060 71.6 68 88% 29.87 0.0
14 00:35 E 6 10.00 Thunderstorm in Vicinity BKN036 71.6 68 88% 29.87 0.0
14 00:15 SE 6 10.00 Thunderstorm in Vicinity SCT040 71.6 68 88% 29.88 0.0
13 23:55 E 3 10.00 Partly Cloudy SCT038 SCT045 SCT050 69.8 68 94% 29.9 0.0
13 23:35 E 5 10.00 Fair CLR 69.8 68 94% 29.91 0.0
13 22:55 Calm 7.00 Fair CLR 69.8 68 94% 29.91 0.0
13 22:35 Calm 10.00 Fair CLR 69.8 68 94% 29.92 0.0
13 22:15 Calm 10.00 Fair CLR 71.6 68 88% 29.9 0.0
13 21:55 Calm 10.00 Fair CLR 71.6 68 88% 29.91 0.0
13 21:35 SE 3 10.00 Partly Cloudy SCT040 73.4 68 83% 29.91 0.0
13 21:15 SE 6 10.00 Fair CLR 73.4 69.8 89% 29.91 0.0
13 20:55 Calm 10.00 Fair CLR 73.4 69.8 89% 29.9 0.0
13 20:35 Calm 10.00 Fair CLR 73.4 69.8 89% 29.89 0.0
13 20:15 Calm 10.00 Fair CLR 73.4 69.8 89% 29.9 0.0
13 19:55 Calm 10.00 Fair CLR 73.4 69.8 89% 29.89 0.0
13 19:35 Calm 10.00 Fair CLR 71.6 69.8 94% 29.9 0.0
13 19:15 SE 3 10.00 Fair CLR 73.4 69.8 89% 29.91 0.0
13 18:55 SE 3 10.00 Fair CLR 71.6 69.8 94% 29.91 0.0
13 18:35 E 5 10.00 Fair CLR 71.6 69.8 94% 29.91 0.0
13 18:15 E 5 10.00 Thunderstorm in Vicinity CLR 71.6 69.8 94% 29.92 0.0
13 17:55 Calm 10.00 Thunderstorm in Vicinity SCT017 73.4 69.8 89% 29.95 0.0
13 17:35 S 9 10.00 Thunderstorm Light Rain SCT017 SCT034 SCT095 73.4 69.8 89% 29.93 0.0
13 17:15 W 12 10.00 Thunderstorm Light Rain in Vicinity SCT013 SCT038 SCT090 73.4 69.8 89% 29.96 0.0
13 16:55 E 6 10.00 Thunderstorm Light Rain in Vicinity SCT070 BKN090 73.4 69.8 89% 29.92 0.0
13 16:35 NE 7 10.00 Partly Cloudy SCT100 73.4 69.8 89% 29.94 0.0
13 16:15 E 3 10.00 Partly Cloudy SCT100 73.4 69.8 89% 29.95 0.0
13 15:55 Calm 10.00 Thunderstorm Light Rain SCT055 73.4 69.8 89% 29.95 0.0
13 15:35 N 8 G 17 10.00 Thunderstorm SCT110 71.6 68 88% 29.94 0.0
13 15:15 Calm 10.00 Thunderstorm Light Rain SCT002 SCT031 BKN060 71.6 68 88% 29.95 0.0
13 14:55 SE 7 G 15 0.50 Thunderstorm Rain BKN002 BKN018 OVC026 71.6 68 88% 30.01 0.0
13 14:35 N 14 G 21 7.00 Thunderstorm Rain in Vicinity BKN027 OVC034 80.6 73.4 79% 85 29.98 0.0
13 14:15 E 3 10.00 Thunderstorm in Vicinity SCT030 82.4 71.6 70% 87 29.98 0.0
13 13:55 SE 8 10.00 Thunderstorm in Vicinity SCT100 84.2 71.6 66% 90 29.96 0.0
13 13:35 E 7 10.00 Thunderstorm in Vicinity SCT100 82.4 71.6 70% 87 29.98 0.0
13 13:15 SE 9 10.00 Thunderstorm in Vicinity SCT110 82.4 71.6 70% 87 29.98 0.0
13 12:55 SE 9 10.00 Fair CLR 82.4 71.6 70% 87 29.97 0.0
13 12:35 SE 8 10.00 Fair CLR 80.6 71.6 74% 85 29.99 0.0
13 12:15 SE 10 10.00 Fair CLR 80.6 71.6 74% 85 29.99 0.0
13 11:55 E 8 10.00 Fair CLR 78.8 69.8 74% 81 30 0.0
13 11:35 SE 15 10.00 Partly Cloudy SCT100 78.8 69.8 74% 81 29.98 0.0
13 11:15 SE 14 10.00 Fair CLR 78.8 69.8 74% 81 29.99 0.0
13 10:55 SE 7 10.00 Fair CLR 78.8 69.8 74% 81 30 0.0
13 10:35 Calm 10.00 Partly Cloudy SCT027 SCT033 77 69.8 79% 79 30.01 0.0
13 10:15 E 5 10.00 Thunderstorm in Vicinity SCT019 BKN027 BKN110 75.2 69.8 83% 75 30.02 0.0
13 09:55 N 7 10.00 Thunderstorm in Vicinity SCT019 SCT031 SCT110 75.2 69.8 83% 75 30.05 0.0
13 09:35 E 5 10.00 Thunderstorm in Vicinity SCT100 75.2 69.8 83% 75 30.03 0.0
13 09:15 Calm 10.00 Partly Cloudy SCT100 77 68 74% 79 30.03 0.0
13 08:55 Calm 10.00 Partly Cloudy SCT100 77 68 74% 79 30.04 0.0
13 08:35 SE 5 10.00 Thunderstorm in Vicinity SCT110 77 68 74% 79 30.03 0.0
13 08:15 Calm 10.00 Fair CLR 75.2 66.2 74% 77 30.05 0.0
13 07:55 E 7 10.00 Fair CLR 75.2 66.2 74% 77 30.04 0.0
13 07:35 E 3 10.00 Fair CLR 75.2 66.2 74% 77 30.04 0.0
13 07:15 E 6 10.00 Partly Cloudy SCT065 73.4 66.2 78% 30.03 0.0
13 06:55 SE 6 10.00 Mostly Cloudy SCT048 BKN065 73.4 66.2 78% 30.04 0.0
13 06:35 E 3 10.00 Mostly Cloudy SCT044 BKN065 73.4 64.4 74% 30.03 0.0
13 06:15 Calm 10.00 Partly Cloudy SCT044 73.4 64.4 74% 30.03 0.0
13 05:55 E 5 10.00 Mostly Cloudy SCT023 SCT033 BKN044 73.4 64.4 74% 30.02 0.0
13 05:35 E 6 10.00 Mostly Cloudy SCT025 SCT030 BKN037 73.4 64.4 74% 30.02 0.0
13 05:15 E 6 10.00 Partly Cloudy SCT036 73.4 64.4 74% 30.03 0.0
13 04:55 E 6 10.00 Mostly Cloudy BKN039 73.4 64.4 74% 30.03 0.0
13 04:35 E 5 10.00 Mostly Cloudy BKN041 BKN065 73.4 64.4 74% 30.04 0.0
13 04:15 E 7 10.00 Overcast BKN041 OVC050 73.4 64.4 74% 30.04 0.0
13 03:55 E 5 10.00 Mostly Cloudy SCT041 SCT050 BKN055 73.4 64.4 74% 30.04 0.0
13 03:35 E 6 10.00 Mostly Cloudy SCT048 BKN050 BKN065 73.4 64.4 74% 30.03 0.0
13 03:15 E 6 10.00 Overcast BKN050 OVC055 73.4 64.4 74% 30.03 0.0
13 02:55 E 7 10.00 Mostly Cloudy BKN050 73.4 64.4 74% 30.03 0.0
13 02:35 NE 6 10.00 Fair CLR 71.6 64.4 78% 30.04 0.0
13 02:15 E 5 10.00 Fair CLR 73.4 64.4 74% 30.04 0.0
13 01:55 E 3 10.00 Fair CLR 73.4 64.4 74% 30.04 0.0
13 01:35 SE 3 10.00 Fair CLR 73.4 64.4 74% 30.05 0.0
13 01:15 SE 7 10.00 Fair CLR 75.2 64.4 69% 77 30.05 0.0
13 00:55 SE 7 10.00 Fair CLR 75.2 64.4 69% 77 30.06 0.0
13 00:35 SE 6 10.00 Fair CLR 75.2 64.4 69% 77 30.05 0.0
13 00:15 SE 5 10.00 Fair CLR 75.2 64.4 69% 77 30.05 0.0
12 23:55 E 3 10.00 Fair CLR 73.4 64.4 74% 30.05 0.0
12 23:35 Calm 10.00 Fair CLR 73.4 64.4 74% 30.06 0.0
12 23:15 Calm 10.00 Fair CLR 75.2 64.4 69% 77 30.05 0.0
12 22:55 Calm 10.00 Fair CLR 75.2 64.4 69% 77 30.05 0.0
12 22:35 S 9 10.00 Fair CLR 78.8 64.4 61% 81 30.04 0.0
12 22:15 SE 5 10.00 Fair CLR 77 64.4 65% 79 30.04 0.0
12 21:55 SE 7 10.00 Fair CLR 78.8 62.6 58% 80 30.05 0.0
12 21:35 S 7 10.00 Fair CLR 78.8 62.6 58% 80 30.04 0.0
12 21:15 S 6 10.00 Fair CLR 78.8 62.6 58% 80 30.04 0.0
12 20:55 S 7 10.00 Fair CLR 80.6 62.6 54% 82 30.04 0.0
12 20:35 S 6 10.00 Fair CLR 80.6 62.6 54% 82 30.04 0.0
12 20:15 S 5 10.00 Fair CLR 82.4 62.6 51% 83 30.04 0.0
12 19:55 SE 6 10.00 Fair CLR 82.4 62.6 51% 83 30.03 0.0
12 19:35 SE 7 10.00 Fair CLR 82.4 62.6 51% 83 30.03 0.0
12 19:15 S 8 10.00 Fair CLR 84.2 62.6 48% 85 30.03 0.0
12 18:55 SE 6 10.00 Fair CLR 84.2 62.6 48% 85 30.03 0.0
12 18:35 SE 7 10.00 Fair CLR 86 62.6 46% 87 30.03 0.0
12 18:15 SE 7 10.00 Fair CLR 86 62.6 46% 87 30.02 0.0
12 17:55 SE 8 10.00 Fair CLR 86 60.8 43% 86 30.03 0.0
12 17:35 S 6 10.00 Fair CLR 87.8 60.8 40% 88 30.02 0.0
12 17:15 S 12 10.00 Partly Cloudy SCT055 87.8 60.8 40% 88 30.03 0.0
12 16:55 S 8 10.00 Fair CLR 87.8 60.8 40% 88 30.03 0.0
12 16:35 SE 10 10.00 Fair CLR 87.8 59 38% 87 30.03 0.0
12 16:15 SE 7 10.00 Partly Cloudy SCT055 87.8 60.8 40% 88 30.03 0.0
12 15:55 SE 10 10.00 Fair CLR 87.8 60.8 40% 88 30.04 0.0
12 15:35 S 6 10.00 Fair CLR 87.8 60.8 40% 88 30.04 0.0
12 15:15 S 7 10.00 Fair CLR 87.8 57.2 35% 87 30.04 0.0
12 14:55 S 9 G 16 10.00 Fair CLR 86 59 40% 85 30.05 0.0
12 14:35 S 5 10.00 Fair CLR 84.2 60.8 45% 84 30.05 0.0
12 14:15 S 8 10.00 Fair CLR 86 57.2 38% 85 30.05 0.0
12 13:55 S 8 10.00 Fair CLR 86 59 40% 85 30.06 0.0
12 13:35 S 9 G 16 10.00 Fair CLR 86 59 40% 85 30.06 0.0
12 13:15 S 7 10.00 Fair CLR 84.2 60.8 45% 84 30.07 0.0
12 12:55 S 8 10.00 Fair CLR 84.2 60.8 45% 84 30.07 0.0
12 12:35 S 8 10.00 Fair CLR 84.2 62.6 48% 85 30.08 0.0
12 12:15 S 5 10.00 Partly Cloudy SCT110 84.2 62.6 48% 85 30.08 0.0
12 11:55 S 9 10.00 Fair CLR 84.2 60.8 45% 84 30.09 0.0
12 11:35 S 6 10.00 Fair CLR 82.4 62.6 51% 83 30.09 0.0
12 11:15 S 6 10.00 Fair CLR 82.4 62.6 51% 83 30.09 0.0
12 10:55 S 9 10.00 Fair CLR 82.4 62.6 51% 83 30.09 0.0
12 10:35 S 7 10.00 Fair CLR 80.6 64.4 58% 82 30.09 0.0
12 10:15 Calm 10.00 Fair CLR 78.8 64.4 61% 81 30.09 0.0
12 09:55 S 5 10.00 Fair CLR 78.8 64.4 61% 81 30.1 0.0
12 09:35 Calm 10.00 Fair CLR 78.8 64.4 61% 81 30.1 0.0
12 08:55 Calm 10.00 Fair CLR 75.2 64.4 69% 77 30.1 0.0
12 08:35 Calm 10.00 Fair CLR 75.2 64.4 69% 77 30.1 0.0
12 08:15 Calm 10.00 Fair CLR 73.4 64.4 74% 30.1 0.0
12 07:55 Calm 10.00 Fair CLR 73.4 66.2 78% 30.09 0.0
12 07:35 Calm 10.00 Fair CLR 71.6 66.2 83% 30.09 0.0
12 07:15 Calm 10.00 Fair CLR 69.8 64.4 83% 30.09 0.0
12 06:55 Calm 10.00 Fair CLR 66.2 64.4 94% 30.08 0.0
12 06:35 Calm 10.00 Fair CLR 64.4 62.6 94% 30.07 0.0
12 06:15 Calm 7.00 Fair CLR 64.4 62.6 94% 30.07 0.0
12 05:55 Calm 10.00 Fair CLR 64.4 60.8 88% 30.06 0.0
12 05:35 Calm 10.00 Fair CLR 64.4 62.6 94% 30.06 0.0
12 05:15 Calm 10.00 Fair CLR 62.6 60.8 94% 30.05 0.0
12 04:55 Calm 10.00 Fair CLR 64.4 62.6 94% 30.05 0.0
12 04:35 Calm 10.00 Fair CLR 64.4 62.6 94% 30.05 0.0
12 04:15 Calm 10.00 Fair CLR 64.4 62.6 94% 30.05 0.0
12 03:55 Calm 10.00 Fair CLR 64.4 62.6 94% 30.05 0.0
12 03:35 Calm 10.00 Fair CLR 64.4 62.6 94% 30.05 0.0
12 03:15 Calm 10.00 Fair CLR 64.4 62.6 94% 30.04 0.0
12 02:55 Calm 10.00 Fair CLR 64.4 62.6 94% 30.05 0.0
12 02:35 Calm 10.00 Fair CLR 64.4 62.6 94% 30.05 0.0
12 02:15 Calm 10.00 Fair CLR 64.4 62.6 94% 30.05 0.0
12 01:55 Calm 10.00 Fair CLR 66.2 62.6 88% 30.05 0.0
12 01:35 Calm 10.00 Fair CLR 64.4 62.6 94% 30.06 0.0
12 01:15 Calm 10.00 Fair CLR 64.4 62.6 94% 30.06 0.0
12 00:55 Calm 10.00 Fair CLR 64.4 62.6 94% 30.06 0.0
12 00:35 Calm 10.00 Fair CLR 66.2 62.6 88% 30.05 0.0
12 00:15 Calm 10.00 Fair CLR 66.2 62.6 88% 30.05 0.0
11 23:55 Calm 10.00 Fair CLR 66.2 62.6 88% 30.05 0.0
11 23:35 Calm 10.00 Fair CLR 66.2 62.6 88% 30.05 0.0
11 23:15 Calm 10.00 Partly Cloudy SCT100 68 62.6 83% 30.05 0.0
11 22:55 Calm 10.00 Fair CLR 66.2 62.6 88% 30.04 0.0
11 22:35 Calm 10.00 Fair CLR 68 64.4 88% 30.04 0.0
11 22:15 Calm 10.00 Fair CLR 69.8 64.4 83% 30.04 0.0
11 21:55 Calm 10.00 Fair CLR 69.8 64.4 83% 30.04 0.0
11 21:35 Calm 10.00 Fair CLR 71.6 64.4 78% 30.04 0.0
11 21:15 Calm 10.00 Fair CLR 73.4 66.2 78% 30.03 0.0
11 20:55 Calm 10.00 Fair CLR 73.4 66.2 78% 30.03 0.0
11 20:35 Calm 10.00 Partly Cloudy SCT100 75.2 66.2 74% 77 30.03 0.0
11 20:15 Calm 10.00 Fair CLR 78.8 66.2 65% 81 30.03 0.0
11 19:55 Calm 7.00 Fair CLR 80.6 68 66% 83 30.03 0.0
11 19:35 Calm 10.00 Fair CLR 82.4 60.8 48% 83 30.03 0.0
11 19:15 Calm 10.00 Fair CLR 84.2 60.8 45% 84 30.03 0.0
11 18:55 Calm 10.00 Fair CLR 84.2 57.2 40% 83 30.03 0.0
11 18:35 Calm 10.00 Fair CLR 84.2 57.2 40% 83 30.03 0.0
11 18:15 Calm 10.00 Fair CLR 86 57.2 38% 85 30.03 0.0
11 17:55 SE 3 10.00 Fair CLR 86 57.2 38% 85 30.03 0.0
11 17:35 SE 3 10.00 Fair CLR 86 57.2 38% 85 30.04 0.0
11 17:15 S 3 10.00 Fair CLR 86 59 40% 85 30.04 0.0
11 16:55 Calm 10.00 Fair CLR 86 59 40% 85 30.04 0.0
11 16:35 S 5 10.00 Fair CLR 86 59 40% 85 30.04 0.0
11 16:15 Calm 10.00 Fair CLR 86 57.2 38% 85 30.04 0.0
11 15:55 Calm 10.00 Fair CLR 86 57.2 38% 85 30.04 0.0
11 15:35 S 3 10.00 Fair CLR 86 57.2 38% 85 30.05 0.0
11 15:15 SE 3 10.00 Fair CLR 87.8 53.6 31% 86 30.05 0.0
11 14:55 S 3 10.00 Fair CLR 87.8 55.4 33% 86 30.05 0.0
11 14:35 SE 3 10.00 Fair CLR 86 53.6 33% 84 30.05 0.0
11 14:15 S 5 10.00 Fair CLR 86 51.8 31% 84 30.06 0.0
11 13:55 S 5 10.00 Fair CLR 84.2 57.2 40% 83 30.06 0.0
11 13:35 S 5 10.00 Partly Cloudy SCT100 84.2 55.4 37% 83 30.07 0.0
11 13:15 S 6 10.00 Fair CLR 86 60.8 43% 86 30.07 0.0
11 12:55 S 5 10.00 Fair CLR 84.2 62.6 48% 85 30.08 0.0
11 12:35 S 3 10.00 Fair CLR 84.2 62.6 48% 85 30.08 0.0
11 12:15 SE 3 10.00 Fair CLR 82.4 62.6 51% 83 30.08 0.0
11 11:55 S 3 10.00 Fair CLR 82.4 62.6 51% 83 30.08 0.0
11 11:35 S 5 10.00 Fair CLR 82.4 62.6 51% 83 30.08 0.0
11 11:15 Calm 10.00 Fair CLR 80.6 64.4 58% 82 30.07 0.0
11 10:55 Calm 10.00 Fair CLR 78.8 64.4 61% 81 30.07 0.0
11 10:35 S 3 10.00 Fair CLR 78.8 64.4 61% 81 30.07 0.0
11 10:15 S 5 10.00 Fair CLR 77 64.4 65% 79 30.07 0.0
Date Time (cdt) Wind (mph) Vis. (mi.) Weather Sky Cond. Air Dwpt Max. Min. Relative Humidity Wind Chill (°F) Heat Index (°F) altimeter (in) sea level (mb) 1 hr 3 hr 6 hr
6 hour
Temperature (ºF) Pressure Precipitation (in)